Zurück zum Katalog

FLOCK 4G 3

AktivWissenschaftSSO
NORAD 62639·PAYLOAD·🇺🇸 United States

Gestartet Jan 14, 2025 von Vandenberg Space Force Base

Loading…

Nächste Überflüge (nächste 24 Stunden)

TLE

AktuellSource: CelesTrak SupGP

Epoche: Sep 14, 2026, 12:45 UTC

1 62639C 25009AG  26257.53136574  .00009060  00000+0  30374-3 0  2579
2 62639  97.3975 339.2117 0002245  16.9069  45.6245 15.30958616    19

Verfolge FLOCK 4G 3 in Echtzeit mit AllMySat

Download on the App Store